TimeICT,TemperatureF,Dew PointF,Humidity,Sea Level PressureIn,VisibilityMPH,Wind Direction,Wind SpeedMPH,Gust SpeedMPH,PrecipitationIn,Events,Conditions,WindDirDegrees,DateUTC
12:00 AM,78.8,69.8,74,29.95,5.0,ENE,5.8,-,N/A,,Scattered Clouds,70,2014-02-17 17:00:00
12:30 AM,78.8,69.8,74,29.95,5.0,NE,5.8,-,N/A,,Scattered Clouds,50,2014-02-17 17:30:00
1:00 AM,80,72,69,29.90,6,Calm,Calm,,,,Mist,,2014-02-17 18:00:00
1:00 AM,78.8,69.8,74,29.92,5.0,ENE,6.9,-,N/A,,Scattered Clouds,70,2014-02-17 18:00:00
1:30 AM,78.8,68.0,69,29.92,5.0,NE,5.8,-,N/A,,Scattered Clouds,50,2014-02-17 18:30:00
2:00 AM,78.8,69.8,74,29.92,5.0,ENE,5.8,-,N/A,,Scattered Clouds,60,2014-02-17 19:00:00
2:30 AM,78.8,69.8,74,29.89,5.0,NE,5.8,-,N/A,,Scattered Clouds,50,2014-02-17 19:30:00
3:00 AM,78.8,69.8,74,29.89,5.0,ENE,8.1,-,N/A,,Scattered Clouds,60,2014-02-17 20:00:00
4:00 AM,77,72,80,29.86,6,Calm,Calm,,,,Mist,,2014-02-17 21:00:00
4:00 AM,77.0,69.8,78,29.89,5.0,NE,5.8,-,N/A,,Scattered Clouds,50,2014-02-17 21:00:00
5:30 AM,73.4,69.8,88,29.92,5.0,Calm,Calm,-,N/A,,Scattered Clouds,0,2014-02-17 22:30:00
6:00 AM,73.4,69.8,88,29.92,5.0,East,4.6,-,N/A,,Scattered Clouds,90,2014-02-17 23:00:00
6:30 AM,77.0,69.8,78,29.92,5.0,East,8.1,-,N/A,,Scattered Clouds,80,2014-02-17 23:30:00
7:00 AM,76,72,82,29.89,6,Calm,Calm,,,,Mist,,2014-02-18 00:00:00
7:00 AM,77.0,69.8,78,29.92,5.0,ESE,3.5,-,N/A,,Mostly Cloudy,120,2014-02-18 00:00:00
7:30 AM,77.0,69.8,78,29.95,5.0,East,5.8,-,N/A,,Mostly Cloudy,80,2014-02-18 00:30:00
8:00 AM,78.8,69.8,74,29.95,5.0,NE,10.4,-,N/A,,Mostly Cloudy,50,2014-02-18 01:00:00
8:30 AM,80.6,69.8,70,29.95,5.6,ENE,11.5,-,N/A,,Mostly Cloudy,70,2014-02-18 01:30:00
9:00 AM,80.6,69.8,70,29.98,5.6,East,10.4,-,N/A,,Mostly Cloudy,80,2014-02-18 02:00:00
9:30 AM,82.4,69.8,66,29.98,5.6,ENE,11.5,-,N/A,,Mostly Cloudy,70,2014-02-18 02:30:00
10:00 AM,84,71,56,29.92,6,East,11.5,,,,Scattered Clouds,100,2014-02-18 03:00:00
10:00 AM,82.4,68.0,62,29.98,5.6,East,11.5,-,N/A,,Mostly Cloudy,90,2014-02-18 03:00:00
10:30 AM,84.2,68.0,58,29.98,5.6,East,11.5,-,N/A,,Mostly Cloudy,80,2014-02-18 03:30:00
11:00 AM,84.2,68.0,58,29.98,5.6,East,11.5,-,N/A,,Mostly Cloudy,80,2014-02-18 04:00:00
11:30 AM,86.0,68.0,55,29.95,5.6,East,9.2,-,N/A,,Mostly Cloudy,80,2014-02-18 04:30:00
12:00 PM,87.8,68.0,52,29.92,5.6,ENE,10.4,-,N/A,,Mostly Cloudy,60,2014-02-18 05:00:00
12:30 PM,87.8,68.0,52,29.92,5.6,ENE,8.1,-,N/A,,Mostly Cloudy,60,2014-02-18 05:30:00
1:00 PM,90,69,40,29.88,6,East,13.8,,,,Scattered Clouds,90,2014-02-18 06:00:00
1:00 PM,87.8,66.2,49,29.92,5.6,ENE,9.2,-,N/A,,Mostly Cloudy,70,2014-02-18 06:00:00
1:30 PM,89.6,64.4,43,29.89,5.6,Variable,8.1,-,N/A,,Mostly Cloudy,0,2014-02-18 06:30:00
2:00 PM,89.6,64.4,43,29.86,5.6,ENE,9.2,-,N/A,,Mostly Cloudy,60,2014-02-18 07:00:00
2:30 PM,89.6,64.4,43,29.86,5.6,ENE,9.2,-,N/A,,Mostly Cloudy,70,2014-02-18 07:30:00
3:00 PM,91.4,64.4,41,29.83,5.6,ENE,8.1,-,N/A,,Mostly Cloudy,70,2014-02-18 08:00:00
3:30 PM,93.2,57.2,30,29.83,5.6,East,5.8,-,N/A,,Mostly Cloudy,90,2014-02-18 08:30:00
4:00 PM,93,67,33,29.80,6,WNW,6.9,,,,Scattered Clouds,300,2014-02-18 09:00:00
4:00 PM,91.4,64.4,41,29.83,5.6,Variable,3.5,-,N/A,,Mostly Cloudy,0,2014-02-18 09:00:00
4:30 PM,87.8,71.6,58,29.83,5.6,NW,15.0,-,N/A,,Mostly Cloudy,310,2014-02-18 09:30:00
5:00 PM,86.0,71.6,62,29.83,5.6,WNW,12.7,-,N/A,,Mostly Cloudy,300,2014-02-18 10:00:00
5:30 PM,84.2,71.6,66,29.83,5.6,NW,12.7,-,N/A,,Mostly Cloudy,310,2014-02-18 10:30:00
6:00 PM,84.2,69.8,62,29.86,5.0,WNW,12.7,-,N/A,,Mostly Cloudy,300,2014-02-18 11:00:00
6:30 PM,82.4,71.6,70,29.86,5.0,WNW,11.5,-,N/A,,Mostly Cloudy,300,2014-02-18 11:30:00
7:00 PM,84,73,62,29.82,6,North,17.3,,,,Mist,350,2014-02-18 12:00:00
7:00 PM,82.4,71.6,70,29.86,5.0,WNW,10.4,-,N/A,,Mostly Cloudy,300,2014-02-18 12:00:00
7:30 PM,82.4,71.6,70,29.86,5.0,WNW,9.2,-,N/A,,Mostly Cloudy,300,2014-02-18 12:30:00
8:00 PM,82.4,71.6,70,29.89,5.0,WNW,6.9,-,N/A,,Mostly Cloudy,290,2014-02-18 13:00:00
8:30 PM,82.4,73.4,74,29.89,5.0,WNW,9.2,-,N/A,,Scattered Clouds,300,2014-02-18 13:30:00
9:00 PM,82.4,73.4,74,29.92,5.0,WNW,9.2,-,N/A,,Scattered Clouds,290,2014-02-18 14:00:00
9:30 PM,82.4,73.4,74,29.92,5.0,West,6.9,-,N/A,,Scattered Clouds,280,2014-02-18 14:30:00
10:00 PM,83,75,70,29.88,5,Calm,Calm,,,,Mist,,2014-02-18 15:00:00
10:00 PM,80.6,73.4,79,29.92,5.0,West,3.5,-,N/A,,Scattered Clouds,280,2014-02-18 15:00:00
10:30 PM,80.6,71.6,74,29.92,5.0,West,3.5,-,N/A,,Scattered Clouds,280,2014-02-18 15:30:00
11:00 PM,80.6,71.6,74,29.92,5.0,Variable,2.3,-,N/A,,Scattered Clouds,0,2014-02-18 16:00:00
11:30 PM,78.8,71.6,78,29.92,5.0,Calm,Calm,-,N/A,,Scattered Clouds,0,2014-02-18 16:30:00